Other Public Products
Issued by NWS Grand Forks, ND

Home | Current Version | Previous Version | Graphics & Text | Print | Product List | Glossary On
Versions: 1 2 3 4 5 6 7 8 9 10 11 12 13 14 15 16 17 18 19 20 21 22 23 24 25 26 27 28 29 30 31 32 33 34 35 36 37 38 39 40 41 42 43 44 45 46 47 48 49 50
000
FPUS83 KFGF 202010
OPUFGF
PRAIRIE TO PINES WEATHER ROUNDUP
NATIONAL WEATHER SERVICE EASTERN NORTH DAKOTA/GRAND FORKS ND
300 PM CDT MON OCT 20 2014

 **SATELLITE DATA USED TO AUGMENT SKY COVER AT AUTOMATED STATIONS**
 *****  WEATHER ACROSS EASTERN NORTH DAKOTA  *****

CITY           SKY/WX    TMP DP  RH WIND       PRES   REMARKS
GRAND FORKS    SUNNY     58  42  55 NE6       30.04F
GRAND FORKS AF SUNNY     58  43  58 VRB1      30.04F
GRAND CITY NWS   N/A     57 N/A N/A E3          N/A
BUXTON         NOT AVBL
DEVILS LAKE    SUNNY     64  43  45 SE8       29.99F
FARGO          SUNNY     63  43  48 VRB6      30.03F
WAHPETON ARPT  CLEAR     63  37  39 N7        30.03F
$$

 *****  WEATHER ACROSS CENTRAL AND WESTERN NORTH DAKOTA  *****

CITY           SKY/WX    TMP DP  RH WIND       PRES   REMARKS
JAMESTOWN      SUNNY     67  38  34 CALM      30.01F
BISMARCK       SUNNY     73  35  25 S18       29.99F
MINOT          SUNNY     70  36  28 S17       29.93F
MINOT AFB      SUNNY     70  37  30 S17       29.92F
GARRISON         N/A     71  40  32 S14       29.95F
WILLISTON      SUNNY     76  41  28 S13       29.86F
DICKINSON      SUNNY     73  42  32 S21       29.91F
HETTINGER      SUNNY     72  39  30 SE18G24   29.95F
$$

 *****  OTHER OBSERVATIONS NORTHEAST NORTH DAKOTA  *****

CITY           SKY/WX    TMP DP  RH WIND       PRES   REMARKS
WALHALLA         N/A     54  45  71 SE6       30.04F
LANGDON        FAIR      66  41  39 S8        30.01F
CAVALIER       FAIR      54  41  62 E5        30.04F
GRAFTON        FAIR      55  41  58 E6        30.04F
CANDO          FAIR      64  41  42 S9        30.00F
FORT TOTTEN    NOT AVBL
ROLLA          FAIR      66  39  37 S13       29.99F
RUGBY          FAIR      68  39  34 S12       29.97F
 ***** THE ABOVE OBSERVATIONS ARE NON NWS ARE NOT QUALITY
        CONTROLLED AND MAY MIS-REPORT RAIN FOR SNOW...
$$

 *****  OTHER OBSERVATIONS SOUTHEAST NORTH DAKOTA *****

CITY           SKY/WX    TMP DP  RH WIND       PRES   REMARKS
COOPERSTOWN    NOT AVBL
VALLEY CITY    FAIR      64  41  42 CALM      30.03F
OAKES            N/A     68  39  34 CALM      30.03F
GWINNER        CLEAR     68  43  40 NW3       30.04F
BUFFALO        NOT AVBL
WYNDMERE         N/A     66  41  39 N5          N/A
 ***** THE ABOVE OBSERVATIONS ARE NON NWS ARE NOT QUALITY
       CONTROLLED AND MAY MIS-REPORT RAIN FOR SNOW...
$$

  *****  WEATHER ACROSS NORTHERN MINNESOTA  *****

CITY           SKY/WX    TMP DP  RH WIND       PRES   REMARKS
FLAG ISLAND    SUNNY     46  36  66 NE3       30.04F
WARROAD        SUNNY     48  39  71 E7        30.06S
ROSEAU         SUNNY     52  39  62 CALM      30.05F
HALLOCK        SUNNY     54  43  66 CALM      30.04F
THF RVR FALLS  SUNNY     52  39  62 NW3       30.05F
HALSTAD          N/A     63  39  42 N8          N/A
FOSSTON        SUNNY     57  37  47 N7        30.05S
BAUDETTE       CLOUDY    48  37  65 N5        30.06S
WASKISH        CLOUDY    48  41  76 CALM      30.05S
CROOKSTON      SUNNY     55  43  62 N6        30.05F
$$
  *****  WEATHER ACROSS CENTRAL AND WEST MINNESOTA  *****

CITY           SKY/WX    TMP DP  RH WIND       PRES   REMARKS
BEMIDJI        SUNNY     51  39  62 N8        30.03F
PARK RAPIDS    SUNNY     58  36  43 N6        30.01F
WADENA         SUNNY     61  39  44 NW12      30.01S
DETROIT LAKES  SUNNY     59  41  51 NW8       30.04S
MOORHEAD       SUNNY     63  43  48 N7        30.04F
FERGUS FALLS   SUNNY     63  37  39 NW8G17    30.03F
ELBOW LAKE     FAIR      62  41  45 N12       30.02F
MORRIS MN      SUNNY     66  41  39 NW13G18   30.01F
STAPLES        SUNNY     59  36  41 NW3       30.01S
WHEATON        SUNNY     64  39  39 NW12      30.04F
$$
  *****  WEATHER ELSEWHERE ACROSS MINNESOTA  *****

CITY           SKY/WX    TMP DP  RH WIND       PRES   REMARKS
DULUTH         CLOUDY    49  39  68 N9        29.99S
INTRNTL FALLS  CLOUDY    48  37  65 NW9       30.04S
ELY            CLOUDY    46  37  71 N8        30.00S
CLOQUET        CLOUDY    52  37  58 NW12      30.00S
BRAINERD       SUNNY     56  40  55 N8        30.01F
HIBBING        CLOUDY    48  37  65 N9        30.02R
ALEXANDRIA     SUNNY     63  37  38 N13       30.02F
SAINT CLOUD    SUNNY     65  40  39 NW9G20    29.99F
MINNEAPOLIS    SUNNY     63  42  46 NW13      29.97F
$$

  *****  WEATHER ACROSS SOUTH DAKOTA  *****

CITY           SKY/WX    TMP DP  RH WIND       PRES   REMARKS
SIOUX FALLS    MOSUNNY   70  42  36 W9        30.04F
BROOKINGS      NOT AVBL
WATERTOWN      SUNNY     69  36  29 N10       30.04F
HURON          SUNNY     71  33  24 NW3       30.04F
SISSETON         N/A     69  39  33 N12       30.02F
ABERDEEN       SUNNY     73  38  27 CALM      30.04F
MITCHELL       SUNNY     70  36  28 VRB3      30.05F
PIERRE         SUNNY     74  37  26 SE14      29.99F
MOBRIDGE       SUNNY     72  36  26 S15       29.98F
RAPID CITY     SUNNY     75  44  33 S17G24    29.95F
$$

  *****  SOME WEATHER IN NEARBY STATES *****

CITY           SKY/WX    TMP DP  RH WIND       PRES   REMARKS
GLASGOW MT     SUNNY     68  41  37 SE14      29.81F
GREAT FALLS MT SUNNY     77  32  19 S13       29.80F
CHEYENNE WY    SUNNY     71  34  25 S16       30.13F
SCOTTSBLUFF NE SUNNY     80  50  34 S12       30.02F
OMAHA NE       SUNNY     71  38  29 NW5       30.05F
DES MOINES IA  SUNNY     71  40  32 NW15      30.00F
DAVENPORT IA   SUNNY     66  41  40 NW22      29.93S
CHICAGO IL     PTSUNNY   64  45  49 NW18      29.84R
EAU CLAIRE WI  PTSUNNY   58  39  49 N13       29.96S
LA CROSSE WI   MOSUNNY   67  42  40 NW10      29.92S
$$

  *****  SOME NATIONAL WEATHER *****

CITY           SKY/WX    TMP DP  RH WIND       PRES   REMARKS
LA GUARDIA NY  PTSUNNY   59  36  42 S12       30.00F
RALEIGH NC     MOSUNNY   70  44  39 SW14G20   30.01F
ATLANTA GA     MOSUNNY   72  50  45 S8        30.01F
NEW ORLEANS LA MOSUNNY   78  57  48 N7        30.00F
OKLAHOMA CITY  MOSUNNY   82  60  47 VRB3      30.02F
ALBUQUERQUE NM PTSUNNY   69  43  38 VRB5      30.14F
SALT LAKE CITY MOSUNNY   76  34  21 S15G22    29.98F
LOS ANGELES CA MOSUNNY   73  61  65 SW7       29.91F
BOISE ID       SUNNY     76  35  22 NW8       29.81F
SEATTLE WA     PTSUNNY   61  54  77 SW6       29.76F
$$

*** WEATHER ACROSS MANITOBA...SASKATCHEWAN AND ONTARIO ***
                ***ONTARIO***

CITY           SKY/WX    TMP DP  RH WIND       PRES   REMARKS
GERALDTON      DRIZZLE   36  36 100 NE6       29.97R
THUNDER BAY    CLOUDY    46  39  76 N15       29.99R
SIOUX LOOKOUT  PTSUNNY   41  34  75 N5        30.05S
TORONTO        LGT RAIN  52  48  87 E2        29.78S
BIG TROUT LK   CLOUDY    36  32  87 NW6       30.12R
PICKLE LAKE    DRIZZLE   36  34  93 N6        30.07R
DRYDEN         CLOUDY    43  34  70 N6        30.05S
KENORA         NOT AVBL
$$
                *** MANITOBA***

CITY           SKY/WX    TMP DP  RH WIND       PRES   REMARKS
BRANDON        MOSUNNY   63  45  51 E10       29.97F
DAUPHIN        SUNNY     52  45  76 SE15      29.95F
ISLAND LAKE    CLOUDY    39  34  81 E3        30.10S
PILOT MOUND      N/A     64  39  39 S10         N/A
THE PAS        PTSUNNY   46  41  81 SE21G28   29.89F
THOMPSON       DRIZZLE   36  36 100 SE9       30.03F
WINNIPEG       NOT AVBL
LYNN LAKE      CLOUDY    37  36  93 SE21G26   29.87F
GILLAM         CLOUDY    37  34  87 S6        30.09S
$$
                ***SASKATCHEWAN***

CITY           SKY/WX    TMP DP  RH WIND       PRES   REMARKS
ESTEVAN        MOSUNNY   73  41  31 S14       29.86F
KINDERSLEY     NOT AVBL
LLOYDMINSTER   MOSUNNY   66  36  32 S9        29.59F
PRINCE ALBERT  MOSUNNY   64  45  48 SE14      29.67F
REGINA         MOSUNNY   72  45  37 S14       29.78F
YORKTON        SUNNY     68  39  34 SE18      29.83F
N. BATTLEFORD  SUNNY     72  37  28 SW13      29.64F


USA.gov is the U.S. government's official web portal to all federal, state and local government web resources and services.